| time (UTC) | temp C | wind direction | speed KPH | gust KPH | rain 1hr cm | rain 24hr cm | rain mn cm | humidity % | barometer mb |
| 20260504184605 | 27 | 166 | 3.2 | 9.7 | 0.00 | 0.00 | 0.00 | 53 | 1015.0 |
| 20260504183102 | 28 | 166 | 3.2 | 11.3 | 0.00 | 0.00 | 0.00 | 50 | 1014.9 |
| 20260504181602 | 28 | 166 | 3.2 | 9.7 | 0.00 | 0.00 | 0.00 | 52 | 1015.1 |
| 20260504174559 | 27 | 167 | 4.8 | 11.3 | 0.00 | 0.00 | 0.00 | 53 | 1015.6 |
| 20260504173058 | 26 | 167 | 4.8 | 12.9 | 0.00 | 0.00 | 0.00 | 57 | 1015.7 |
| 20260504171602 | 26 | 166 | 4.8 | 11.3 | 0.00 | 0.00 | 0.00 | 59 | 1016.0 |
| 20260504150105 | 23 | 166 | 3.2 | 12.9 | 0.00 | 0.00 | 0.00 | 66 | 1016.8 |
| 20260504110104 | 14 | 0 | 0.0 | 0.0 | 0.00 | 0.00 | 0.00 | 85 | 1016.5 |
| 20260504081559 | 15 | 0 | 0.0 | 0.0 | 0.00 | 0.00 | 0.00 | 82 | 1017.2 |
| 20260504070106 | 15 | 0 | 0.0 | 0.0 | 0.00 | 0.00 | 0.00 | 77 | 1018.7 |
| 20260504044605 | 17 | 0 | 0.0 | 0.0 | 0.00 | 0.00 | 0.00 | 68 | 1019.6 |
| 20260504043104 | 17 | 0 | 0.0 | 0.0 | 0.00 | 0.00 | 0.00 | 66 | 1019.7 |
| 20260504041556 | 18 | 0 | 0.0 | 0.0 | 0.00 | 0.00 | 0.00 | 64 | 1019.7 |
| 20260504040058 | 18 | 0 | 0.0 | 1.6 | 0.00 | 0.00 | 0.00 | 64 | 1019.7 |
| 20260504034614 | 18 | 0 | 0.0 | 0.0 | 0.00 | 0.00 | 0.00 | 62 | 1019.6 |
| 20260504033056 | 19 | 0 | 0.0 | 3.2 | 0.00 | 0.00 | 0.00 | 60 | 1019.7 |
| 20260504031559 | 19 | 0 | 0.0 | 3.2 | 0.00 | 0.00 | 0.00 | 59 | 1019.5 |
| 20260504030058 | 20 | 0 | 0.0 | 4.8 | 0.00 | 0.00 | 0.00 | 58 | 1019.4 |
| 20260504024559 | 20 | 165 | 0.0 | 6.4 | 0.00 | 0.00 | 0.00 | 57 | 1019.3 |
| 20260504023057 | 20 | 0 | 0.0 | 3.2 | 0.00 | 0.00 | 0.00 | 56 | 1019.3 |
| 20260504021557 | 20 | 0 | 0.0 | 6.4 | 0.00 | 0.00 | 0.00 | 54 | 1019.3 |
| 20260504020059 | 21 | 0 | 0.0 | 4.8 | 0.00 | 0.00 | 0.00 | 53 | 1019.1 |
| 20260504014618 | 21 | 165 | 1.6 | 8.0 | 0.00 | 0.00 | 0.00 | 52 | 1019.0 |
| 20260504013104 | 21 | 165 | 0.0 | 4.8 | 0.00 | 0.00 | 0.00 | 50 | 1019.0 |
| 20260504011603 | 22 | 0 | 1.6 | 6.4 | 0.00 | 0.00 | 0.00 | 48 | 1019.0 |
| 20260504010100 | 22 | 0 | 0.0 | 4.8 | 0.00 | 0.00 | 0.00 | 47 | 1018.8 |
| 20260504004559 | 22 | 165 | 0.0 | 6.4 | 0.00 | 0.00 | 0.00 | 47 | 1018.8 |
| 20260504003101 | 23 | 165 | 1.6 | 11.3 | 0.00 | 0.00 | 0.00 | 45 | 1019.0 |
| 20260504001616 | 23 | 0 | 3.2 | 9.7 | 0.00 | 0.00 | 0.00 | 44 | 1018.8 |
| 20260504000057 | 24 | 165 | 0.0 | 6.4 | 0.00 | 0.00 | 0.00 | 43 | 1018.8 |
| 20260503234600 | 25 | 165 | 3.2 | 9.7 | 0.00 | 0.00 | 0.00 | 42 | 1018.9 |
| 20260503233057 | 25 | 165 | 1.6 | 6.4 | 0.00 | 0.00 | 0.00 | 39 | 1018.8 |
| 20260503231559 | 26 | 165 | 0.0 | 8.0 | 0.00 | 0.00 | 0.00 | 34 | 1019.1 |
| 20260503230100 | 26 | 165 | 1.6 | 8.0 | 0.00 | 0.00 | 0.00 | 35 | 1019.1 |
| 20260503224559 | 26 | 165 | 1.6 | 6.4 | 0.00 | 0.00 | 0.00 | 32 | 1019.2 |
| 20260503223059 | 26 | 165 | 1.6 | 6.4 | 0.00 | 0.00 | 0.00 | 32 | 1019.4 |
| 20260503221558 | 26 | 165 | 3.2 | 9.7 | 0.00 | 0.00 | 0.00 | 34 | 1019.6 |
| 20260503220104 | 26 | 165 | 3.2 | 8.0 | 0.00 | 0.00 | 0.00 | 33 | 1019.6 |
| 20260503214559 | 27 | 165 | 0.0 | 8.0 | 0.00 | 0.00 | 0.00 | 35 | 1019.7 |
| 20260503213111 | 27 | 165 | 0.0 | 6.4 | 0.00 | 0.00 | 0.00 | 32 | 1019.9 |
| 20260503211559 | 27 | 165 | 1.6 | 4.8 | 0.00 | 0.00 | 0.00 | 34 | 1020.2 |
| 20260503210104 | 27 | 165 | 3.2 | 6.4 | 0.00 | 0.00 | 0.00 | 32 | 1020.3 |
| 20260503204557 | 27 | 165 | 1.6 | 8.0 | 0.00 | 0.00 | 0.00 | 34 | 1020.5 |
| 20260503203104 | 27 | 165 | 3.2 | 8.0 | 0.00 | 0.00 | 0.00 | 31 | 1020.7 |
| 20260503201557 | 27 | 165 | 1.6 | 8.0 | 0.00 | 0.00 | 0.00 | 33 | 1020.9 |
| 20260503194600 | 27 | 165 | 1.6 | 11.3 | 0.00 | 0.00 | 0.00 | 36 | 1021.4 |
| 20260503193110 | 27 | 165 | 1.6 | 12.9 | 0.00 | 0.00 | 0.00 | 33 | 1021.6 |
| 20260503191605 | 27 | 165 | 1.6 | 6.4 | 0.00 | 0.00 | 0.00 | 36 | 1021.8 |